Starlink 35136

operational
NORAD ID: 65537 Int'l Des: 2025-200 Owner: SPXS Country: US Constellation: starlink
LEOCIRCULARRETROGRADE

Über Starlink 35136

Beschreibung wird geladen...

Live-Position

3D-Globus wird geladen...

Nächste Überflüge

Höhenverlauf

Altitude vs Time

uPlot chart will show altitude changes over time

Zweizeiliger Elementsatz

1 65537U 25200T 25304.76443399 -.00197675 00000-0 -52966-2 0 9991
2 65537 97.6048 12.4356 0003220 53.5455 306.6086 15.38756833 9622
Epoch: 31. Okt. 2025 • Age: 17 hours

Aktueller Status

Höhe 474.7 km
Geschwindigkeit 7.63 km/s
Subsatellitenpunkt -56.57°S, 24.17°W
Startdatum 6. Sept. 2025
Alter 0.1 years
Typ internet

Technische Details

Klassifizierung Payload
Masse 575.00 kg
Trockenmasse 530.00 kg
Gesamtmasse 575.00 kg
Länge 0.30 m
Durchmesser 4.10 m
Spannweite 29.00 m
Form Box + pan
Hersteller SPXS
Bus-Typ Starlink V2MO
Phasenstatus In Orbit
Besitzer/Staat SPXS/US

Große Konstellationen

Loading constellations...